Location: Chuathbaluk
(61.5726°N, 159.2454°W)
Time: 14:15:07
(UTC+00:00)

DELFI C3 - Pass Details

Date: 20 January 2021
Orbit: 531 x 550 km, 97.4° (Epoch: 04 March)

Event Time Altitude Azimuth Distance (km) Brightness Sun altitude
Rises 17:30:18 0° 26° (NNE) 2,744 ? -12.6°
Reaches altitude 10° 17:34:02 10° 63° (ENE) 1,842 ? -12.2°
Maximum altitude 17:35:13 11° 80° (E) 1,768 ? -12.1°
Drops below altitude 10° 17:36:25 10° 98° (E) 1,837 ? -11.9°
Sets 17:40:06 0° 134° (SE) 2,721 ? -11.5°
